Location: Capel Gartheli
(52.1833°N, 4.0667°W)
Time: 19:48:29
(UTC+00:00)

Cosmos 1743 Rocket - Pass Details

Date: 18 February 2020
Orbit: 605 x 632 km, 82.6° (Epoch: 05 April)

Event Time Altitude Azimuth Distance (km) Brightness Sun altitude
Rises 05:22:18 0° 347° (NNW) 2,878 6.9 -19.7°
Reaches altitude 10° 05:24:32 10° 344° (NNW) 1,968 6.0 -19.4°
Maximum altitude 05:28:50 64° 264° (W) 675 3.4 -18.7°
Drops below altitude 10° 05:33:06 10° 183° (S) 1,952 6.0 -18.0°
Sets 05:35:19 0° 180° (S) 2,853 6.9 -17.7°
